<?xml version="1.0"?>
<gpx xmlns="http://www.topografix.com/GPX/1/1" xmlns:xsi="http://www.w3.org/2001/XMLSchema-instance" version="1.1" creator="GPX RubyGem 1.0.0 -- http://dougfales.github.io/gpx/" xsi:schemaLocation="http://www.topografix.com/GPX/1/1 http://www.topografix.com/GPX/1/1/gpx.xsd">
  <metadata>
    <name/>
    <time>2026-05-08T00:47:12+00:00</time>
    <bound minlat="90.0" minlon="180.0" maxlat="-90.0" maxlon="-180.0"/>
  </metadata>
  <trk>
    <name/>
    <trkseg>
      <trkpt lat="45.382052" lon="6.480309">
        <time>1970-01-01T00:00:00+00:00</time>
        <ele>1484.0</ele>
      </trkpt>
      <trkpt lat="45.382159" lon="6.480072">
        <time>1970-01-01T00:00:00+00:00</time>
        <ele>1487.0</ele>
      </trkpt>
      <trkpt lat="45.382002" lon="6.479879">
        <time>1970-01-01T00:00:00+00:00</time>
        <ele>1486.0</ele>
      </trkpt>
      <trkpt lat="45.38193" lon="6.479477">
        <time>1970-01-01T00:00:00+00:00</time>
        <ele>1487.0</ele>
      </trkpt>
      <trkpt lat="45.382035" lon="6.478858">
        <time>1970-01-01T00:00:00+00:00</time>
        <ele>1492.0</ele>
      </trkpt>
      <trkpt lat="45.382119" lon="6.478785">
        <time>1970-01-01T00:00:00+00:00</time>
        <ele>1499.0</ele>
      </trkpt>
      <trkpt lat="45.382393" lon="6.479183">
        <time>1970-01-01T00:00:00+00:00</time>
        <ele>1507.0</ele>
      </trkpt>
      <trkpt lat="45.382442" lon="6.478454">
        <time>1970-01-01T00:00:00+00:00</time>
        <ele>1515.0</ele>
      </trkpt>
      <trkpt lat="45.382762" lon="6.477951">
        <time>1970-01-01T00:00:00+00:00</time>
        <ele>1527.0</ele>
      </trkpt>
      <trkpt lat="45.38304" lon="6.47717">
        <time>1970-01-01T00:00:00+00:00</time>
        <ele>1530.0</ele>
      </trkpt>
      <trkpt lat="45.383206" lon="6.476992">
        <time>1970-01-01T00:00:00+00:00</time>
        <ele>1536.0</ele>
      </trkpt>
      <trkpt lat="45.383702" lon="6.476734">
        <time>1970-01-01T00:00:00+00:00</time>
        <ele>1545.0</ele>
      </trkpt>
      <trkpt lat="45.384745" lon="6.475925">
        <time>1970-01-01T00:00:00+00:00</time>
        <ele>1555.0</ele>
      </trkpt>
      <trkpt lat="45.385567" lon="6.474834">
        <time>1970-01-01T00:00:00+00:00</time>
        <ele>1556.0</ele>
      </trkpt>
      <trkpt lat="45.385937" lon="6.474454">
        <time>1970-01-01T00:00:00+00:00</time>
        <ele>1558.0</ele>
      </trkpt>
      <trkpt lat="45.386213" lon="6.474265">
        <time>1970-01-01T00:00:00+00:00</time>
        <ele>1561.0</ele>
      </trkpt>
      <trkpt lat="45.386292" lon="6.474109">
        <time>1970-01-01T00:00:00+00:00</time>
        <ele>1561.0</ele>
      </trkpt>
      <trkpt lat="45.385941" lon="6.473758">
        <time>1970-01-01T00:00:00+00:00</time>
        <ele>1562.0</ele>
      </trkpt>
      <trkpt lat="45.38582" lon="6.473479">
        <time>1970-01-01T00:00:00+00:00</time>
        <ele>1567.0</ele>
      </trkpt>
      <trkpt lat="45.385629" lon="6.473302">
        <time>1970-01-01T00:00:00+00:00</time>
        <ele>1571.0</ele>
      </trkpt>
      <trkpt lat="45.385505" lon="6.473305">
        <time>1970-01-01T00:00:00+00:00</time>
        <ele>1573.0</ele>
      </trkpt>
      <trkpt lat="45.385199" lon="6.473494">
        <time>1970-01-01T00:00:00+00:00</time>
        <ele>1570.0</ele>
      </trkpt>
      <trkpt lat="45.384983" lon="6.473256">
        <time>1970-01-01T00:00:00+00:00</time>
        <ele>1577.0</ele>
      </trkpt>
      <trkpt lat="45.384799" lon="6.473193">
        <time>1970-01-01T00:00:00+00:00</time>
        <ele>1583.0</ele>
      </trkpt>
      <trkpt lat="45.384666" lon="6.473272">
        <time>1970-01-01T00:00:00+00:00</time>
        <ele>1586.0</ele>
      </trkpt>
      <trkpt lat="45.384541" lon="6.473516">
        <time>1970-01-01T00:00:00+00:00</time>
        <ele>1585.0</ele>
      </trkpt>
      <trkpt lat="45.384455" lon="6.473567">
        <time>1970-01-01T00:00:00+00:00</time>
        <ele>1585.0</ele>
      </trkpt>
      <trkpt lat="45.383234" lon="6.472547">
        <time>1970-01-01T00:00:00+00:00</time>
        <ele>1605.0</ele>
      </trkpt>
      <trkpt lat="45.382712" lon="6.472383">
        <time>1970-01-01T00:00:00+00:00</time>
        <ele>1608.0</ele>
      </trkpt>
      <trkpt lat="45.382331" lon="6.472109">
        <time>1970-01-01T00:00:00+00:00</time>
        <ele>1609.0</ele>
      </trkpt>
      <trkpt lat="45.38247" lon="6.471829">
        <time>1970-01-01T00:00:00+00:00</time>
        <ele>1621.0</ele>
      </trkpt>
      <trkpt lat="45.382596" lon="6.471702">
        <time>1970-01-01T00:00:00+00:00</time>
        <ele>1627.0</ele>
      </trkpt>
      <trkpt lat="45.382545" lon="6.471544">
        <time>1970-01-01T00:00:00+00:00</time>
        <ele>1630.0</ele>
      </trkpt>
      <trkpt lat="45.382664" lon="6.471501">
        <time>1970-01-01T00:00:00+00:00</time>
        <ele>1634.0</ele>
      </trkpt>
      <trkpt lat="45.382568" lon="6.471342">
        <time>1970-01-01T00:00:00+00:00</time>
        <ele>1636.0</ele>
      </trkpt>
      <trkpt lat="45.382688" lon="6.471348">
        <time>1970-01-01T00:00:00+00:00</time>
        <ele>1639.0</ele>
      </trkpt>
      <trkpt lat="45.382909" lon="6.471143">
        <time>1970-01-01T00:00:00+00:00</time>
        <ele>1648.0</ele>
      </trkpt>
      <trkpt lat="45.382795" lon="6.470926">
        <time>1970-01-01T00:00:00+00:00</time>
        <ele>1652.0</ele>
      </trkpt>
      <trkpt lat="45.383186" lon="6.470628">
        <time>1970-01-01T00:00:00+00:00</time>
        <ele>1664.0</ele>
      </trkpt>
      <trkpt lat="45.382989" lon="6.470245">
        <time>1970-01-01T00:00:00+00:00</time>
        <ele>1677.0</ele>
      </trkpt>
      <trkpt lat="45.383191" lon="6.470176">
        <time>1970-01-01T00:00:00+00:00</time>
        <ele>1680.0</ele>
      </trkpt>
      <trkpt lat="45.383119" lon="6.470034">
        <time>1970-01-01T00:00:00+00:00</time>
        <ele>1684.0</ele>
      </trkpt>
      <trkpt lat="45.383211" lon="6.469986">
        <time>1970-01-01T00:00:00+00:00</time>
        <ele>1687.0</ele>
      </trkpt>
      <trkpt lat="45.383119" lon="6.469801">
        <time>1970-01-01T00:00:00+00:00</time>
        <ele>1692.0</ele>
      </trkpt>
      <trkpt lat="45.383325" lon="6.469676">
        <time>1970-01-01T00:00:00+00:00</time>
        <ele>1697.0</ele>
      </trkpt>
      <trkpt lat="45.383079" lon="6.469247">
        <time>1970-01-01T00:00:00+00:00</time>
        <ele>1709.0</ele>
      </trkpt>
      <trkpt lat="45.383246" lon="6.469167">
        <time>1970-01-01T00:00:00+00:00</time>
        <ele>1712.0</ele>
      </trkpt>
      <trkpt lat="45.382968" lon="6.468738">
        <time>1970-01-01T00:00:00+00:00</time>
        <ele>1727.0</ele>
      </trkpt>
      <trkpt lat="45.383033" lon="6.468663">
        <time>1970-01-01T00:00:00+00:00</time>
        <ele>1730.0</ele>
      </trkpt>
      <trkpt lat="45.382946" lon="6.468541">
        <time>1970-01-01T00:00:00+00:00</time>
        <ele>1735.0</ele>
      </trkpt>
      <trkpt lat="45.38307" lon="6.468475">
        <time>1970-01-01T00:00:00+00:00</time>
        <ele>1737.0</ele>
      </trkpt>
      <trkpt lat="45.382997" lon="6.468327">
        <time>1970-01-01T00:00:00+00:00</time>
        <ele>1743.0</ele>
      </trkpt>
      <trkpt lat="45.38307" lon="6.468261">
        <time>1970-01-01T00:00:00+00:00</time>
        <ele>1745.0</ele>
      </trkpt>
      <trkpt lat="45.382985" lon="6.468114">
        <time>1970-01-01T00:00:00+00:00</time>
        <ele>1751.0</ele>
      </trkpt>
      <trkpt lat="45.383078" lon="6.468059">
        <time>1970-01-01T00:00:00+00:00</time>
        <ele>1753.0</ele>
      </trkpt>
      <trkpt lat="45.383008" lon="6.467985">
        <time>1970-01-01T00:00:00+00:00</time>
        <ele>1756.0</ele>
      </trkpt>
      <trkpt lat="45.383115" lon="6.467918">
        <time>1970-01-01T00:00:00+00:00</time>
        <ele>1759.0</ele>
      </trkpt>
      <trkpt lat="45.382991" lon="6.467735">
        <time>1970-01-01T00:00:00+00:00</time>
        <ele>1766.0</ele>
      </trkpt>
      <trkpt lat="45.383097" lon="6.467621">
        <time>1970-01-01T00:00:00+00:00</time>
        <ele>1770.0</ele>
      </trkpt>
      <trkpt lat="45.383026" lon="6.467509">
        <time>1970-01-01T00:00:00+00:00</time>
        <ele>1775.0</ele>
      </trkpt>
      <trkpt lat="45.38311" lon="6.467453">
        <time>1970-01-01T00:00:00+00:00</time>
        <ele>1777.0</ele>
      </trkpt>
      <trkpt lat="45.383106" lon="6.467346">
        <time>1970-01-01T00:00:00+00:00</time>
        <ele>1781.0</ele>
      </trkpt>
      <trkpt lat="45.382961" lon="6.467176">
        <time>1970-01-01T00:00:00+00:00</time>
        <ele>1789.0</ele>
      </trkpt>
      <trkpt lat="45.383099" lon="6.467078">
        <time>1970-01-01T00:00:00+00:00</time>
        <ele>1792.0</ele>
      </trkpt>
      <trkpt lat="45.382961" lon="6.466841">
        <time>1970-01-01T00:00:00+00:00</time>
        <ele>1801.0</ele>
      </trkpt>
      <trkpt lat="45.383147" lon="6.466752">
        <time>1970-01-01T00:00:00+00:00</time>
        <ele>1805.0</ele>
      </trkpt>
      <trkpt lat="45.383035" lon="6.466575">
        <time>1970-01-01T00:00:00+00:00</time>
        <ele>1812.0</ele>
      </trkpt>
      <trkpt lat="45.383141" lon="6.466517">
        <time>1970-01-01T00:00:00+00:00</time>
        <ele>1815.0</ele>
      </trkpt>
      <trkpt lat="45.383004" lon="6.466348">
        <time>1970-01-01T00:00:00+00:00</time>
        <ele>1822.0</ele>
      </trkpt>
      <trkpt lat="45.383141" lon="6.46629">
        <time>1970-01-01T00:00:00+00:00</time>
        <ele>1825.0</ele>
      </trkpt>
      <trkpt lat="45.383099" lon="6.466209">
        <time>1970-01-01T00:00:00+00:00</time>
        <ele>1829.0</ele>
      </trkpt>
      <trkpt lat="45.38324" lon="6.466138">
        <time>1970-01-01T00:00:00+00:00</time>
        <ele>1831.0</ele>
      </trkpt>
      <trkpt lat="45.383131" lon="6.465993">
        <time>1970-01-01T00:00:00+00:00</time>
        <ele>1838.0</ele>
      </trkpt>
      <trkpt lat="45.383178" lon="6.465963">
        <time>1970-01-01T00:00:00+00:00</time>
        <ele>1839.0</ele>
      </trkpt>
      <trkpt lat="45.383134" lon="6.46589">
        <time>1970-01-01T00:00:00+00:00</time>
        <ele>1842.0</ele>
      </trkpt>
      <trkpt lat="45.383377" lon="6.465712">
        <time>1970-01-01T00:00:00+00:00</time>
        <ele>1850.0</ele>
      </trkpt>
      <trkpt lat="45.383244" lon="6.465546">
        <time>1970-01-01T00:00:00+00:00</time>
        <ele>1857.0</ele>
      </trkpt>
      <trkpt lat="45.383485" lon="6.465338">
        <time>1970-01-01T00:00:00+00:00</time>
        <ele>1863.0</ele>
      </trkpt>
      <trkpt lat="45.383682" lon="6.465062">
        <time>1970-01-01T00:00:00+00:00</time>
        <ele>1872.0</ele>
      </trkpt>
      <trkpt lat="45.383695" lon="6.46497">
        <time>1970-01-01T00:00:00+00:00</time>
        <ele>1876.0</ele>
      </trkpt>
      <trkpt lat="45.38358" lon="6.464921">
        <time>1970-01-01T00:00:00+00:00</time>
        <ele>1880.0</ele>
      </trkpt>
      <trkpt lat="45.383829" lon="6.464413">
        <time>1970-01-01T00:00:00+00:00</time>
        <ele>1896.0</ele>
      </trkpt>
      <trkpt lat="45.383714" lon="6.464278">
        <time>1970-01-01T00:00:00+00:00</time>
        <ele>1905.0</ele>
      </trkpt>
      <trkpt lat="45.383833" lon="6.463917">
        <time>1970-01-01T00:00:00+00:00</time>
        <ele>1916.0</ele>
      </trkpt>
      <trkpt lat="45.383583" lon="6.463817">
        <time>1970-01-01T00:00:00+00:00</time>
        <ele>1927.0</ele>
      </trkpt>
      <trkpt lat="45.383554" lon="6.463774">
        <time>1970-01-01T00:00:00+00:00</time>
        <ele>1930.0</ele>
      </trkpt>
      <trkpt lat="45.383594" lon="6.463716">
        <time>1970-01-01T00:00:00+00:00</time>
        <ele>1931.0</ele>
      </trkpt>
      <trkpt lat="45.383381" lon="6.463625">
        <time>1970-01-01T00:00:00+00:00</time>
        <ele>1939.0</ele>
      </trkpt>
      <trkpt lat="45.383091" lon="6.463375">
        <time>1970-01-01T00:00:00+00:00</time>
        <ele>1957.0</ele>
      </trkpt>
      <trkpt lat="45.382941" lon="6.46332">
        <time>1970-01-01T00:00:00+00:00</time>
        <ele>1962.0</ele>
      </trkpt>
      <trkpt lat="45.382005" lon="6.463331">
        <time>1970-01-01T00:00:00+00:00</time>
        <ele>1995.0</ele>
      </trkpt>
      <trkpt lat="45.381882" lon="6.463214">
        <time>1970-01-01T00:00:00+00:00</time>
        <ele>1998.0</ele>
      </trkpt>
      <trkpt lat="45.382036" lon="6.462677">
        <time>1970-01-01T00:00:00+00:00</time>
        <ele>2026.0</ele>
      </trkpt>
      <trkpt lat="45.382169" lon="6.462463">
        <time>1970-01-01T00:00:00+00:00</time>
        <ele>2039.0</ele>
      </trkpt>
      <trkpt lat="45.382168" lon="6.462183">
        <time>1970-01-01T00:00:00+00:00</time>
        <ele>2049.0</ele>
      </trkpt>
      <trkpt lat="45.382211" lon="6.46218">
        <time>1970-01-01T00:00:00+00:00</time>
        <ele>2049.0</ele>
      </trkpt>
      <trkpt lat="45.382298" lon="6.46192">
        <time>1970-01-01T00:00:00+00:00</time>
        <ele>2060.0</ele>
      </trkpt>
      <trkpt lat="45.382363" lon="6.461897">
        <time>1970-01-01T00:00:00+00:00</time>
        <ele>2062.0</ele>
      </trkpt>
      <trkpt lat="45.382456" lon="6.461442">
        <time>1970-01-01T00:00:00+00:00</time>
        <ele>2085.0</ele>
      </trkpt>
      <trkpt lat="45.382627" lon="6.461283">
        <time>1970-01-01T00:00:00+00:00</time>
        <ele>2099.0</ele>
      </trkpt>
      <trkpt lat="45.38283" lon="6.460938">
        <time>1970-01-01T00:00:00+00:00</time>
        <ele>2114.0</ele>
      </trkpt>
      <trkpt lat="45.382752" lon="6.460865">
        <time>1970-01-01T00:00:00+00:00</time>
        <ele>2120.0</ele>
      </trkpt>
      <trkpt lat="45.382763" lon="6.460797">
        <time>1970-01-01T00:00:00+00:00</time>
        <ele>2120.0</ele>
      </trkpt>
      <trkpt lat="45.383048" lon="6.460527">
        <time>1970-01-01T00:00:00+00:00</time>
        <ele>2133.0</ele>
      </trkpt>
      <trkpt lat="45.383037" lon="6.460474">
        <time>1970-01-01T00:00:00+00:00</time>
        <ele>2134.0</ele>
      </trkpt>
      <trkpt lat="45.382722" lon="6.46084">
        <time>1970-01-01T00:00:00+00:00</time>
        <ele>2121.0</ele>
      </trkpt>
      <trkpt lat="45.38283" lon="6.460938">
        <time>1970-01-01T00:00:00+00:00</time>
        <ele>2114.0</ele>
      </trkpt>
      <trkpt lat="45.382627" lon="6.461283">
        <time>1970-01-01T00:00:00+00:00</time>
        <ele>2099.0</ele>
      </trkpt>
      <trkpt lat="45.382453" lon="6.461448">
        <time>1970-01-01T00:00:00+00:00</time>
        <ele>2085.0</ele>
      </trkpt>
      <trkpt lat="45.382363" lon="6.461897">
        <time>1970-01-01T00:00:00+00:00</time>
        <ele>2062.0</ele>
      </trkpt>
      <trkpt lat="45.382298" lon="6.46192">
        <time>1970-01-01T00:00:00+00:00</time>
        <ele>2060.0</ele>
      </trkpt>
      <trkpt lat="45.382154" lon="6.46223">
        <time>1970-01-01T00:00:00+00:00</time>
        <ele>2049.0</ele>
      </trkpt>
      <trkpt lat="45.38218" lon="6.462473">
        <time>1970-01-01T00:00:00+00:00</time>
        <ele>2038.0</ele>
      </trkpt>
      <trkpt lat="45.382036" lon="6.462677">
        <time>1970-01-01T00:00:00+00:00</time>
        <ele>2026.0</ele>
      </trkpt>
      <trkpt lat="45.381882" lon="6.463214">
        <time>1970-01-01T00:00:00+00:00</time>
        <ele>1998.0</ele>
      </trkpt>
      <trkpt lat="45.382005" lon="6.463341">
        <time>1970-01-01T00:00:00+00:00</time>
        <ele>1994.0</ele>
      </trkpt>
      <trkpt lat="45.382941" lon="6.46332">
        <time>1970-01-01T00:00:00+00:00</time>
        <ele>1962.0</ele>
      </trkpt>
      <trkpt lat="45.383375" lon="6.463613">
        <time>1970-01-01T00:00:00+00:00</time>
        <ele>1940.0</ele>
      </trkpt>
    </trkseg>
  </trk>
</gpx>
